Location: Auckland
(36.8500°S, 174.7800°E)
Time: 18:33:36
(UTC+13:00)

ISS - Visible Passes

Search period start: 26 September 2023 00:00
Search period end: 06 October 2023 00:00
Orbit: 413 x 422 km, 51.6° (Epoch: 25 September)

Date Brightness Start Highest point End Pass type
(mag) Time Alt. Az. Time Alt. Az. Time Alt. Az.
26 Sep -1.8 05:26:15 20° SSW 05:26:15 20° SSW 05:28:34 10° SSE visible
27 Sep -0.8 04:40:02 15° SSE 04:40:02 15° SSE 04:40:46 10° SSE visible
28 Sep -1.1 05:26:39 12° SSW 05:26:52 12° SSW 05:28:09 10° S visible
29 Sep -0.6 04:40:16 11° S 04:40:16 11° S 04:40:35 10° SSE visible
03 Oct -0.6 06:18:00 10° SSE 06:18:18 10° SSE 06:18:36 10° SSE visible
05 Oct -1.0 06:16:25 10° SSW 06:18:46 17° SSE 06:21:07 10° ESE visible
